This is the latest recevied weather packets stored in our database for station/object KD0JCP-10. If no packets are shown the sender has not sent any weather packets the latest 10 day(s).
| Time | Temp. | Humidity | Pressure | Rain* | Wind** | Luminosity | Snow |
|---|---|---|---|---|---|---|---|
| 1777906576 | 20° C | 43% | 1003.6 hPa | 0 mm | - | - | - |
| 1777906276 | 19.44° C | 41% | 1003.7 hPa | 0 mm | - | - | - |
| 1777905976 | 19.44° C | 43% | 1003.8 hPa | 0 mm | - | - | - |
| 1777905676 | 18.89° C | 43% | 1003.8 hPa | 0 mm | - | - | - |
| 1777905376 | 18.89° C | 44% | 1003.8 hPa | 0 mm | - | - | - |
| 1777905076 | 18.33° C | 45% | 1003.8 hPa | 0 mm | - | - | - |
| 1777904776 | 17.78° C | 46% | 1003.9 hPa | 0 mm | - | - | - |
| 1777904476 | 17.78° C | 46% | 1004.1 hPa | 0 mm | - | - | - |
| 1777904176 | 17.22° C | 46% | 1004 hPa | 0 mm | - | - | - |
| 1777903876 | 17.22° C | 49% | 1003.9 hPa | 0 mm | - | - | - |
| 1777903576 | 16.67° C | 50% | 1003.9 hPa | 0 mm | - | - | - |
| 1777903276 | 16.11° C | 50% | 1003.8 hPa | 0 mm | - | - | - |
| 1777902976 | 16.11° C | 52% | 1003.9 hPa | 0 mm | - | - | - |
| 1777902676 | 15.56° C | 52% | 1003.9 hPa | 0 mm | - | - | - |
| 1777902376 | 15° C | 53% | 1003.9 hPa | 0 mm | - | - | - |
| 1777902076 | 14.44° C | 53% | 1003.9 hPa | 0 mm | - | - | - |
| 1777901776 | 14.44° C | 53% | 1004 hPa | 0 mm | - | - | - |
| 1777901476 | 13.89° C | 55% | 1003.9 hPa | 0 mm | - | - | - |
| 1777901176 | 13.89° C | 56% | 1003.9 hPa | 0 mm | - | - | - |
| 1777900876 | 13.33° C | 55% | 1003.8 hPa | 0 mm | - | - | - |
| 1777900576 | 13.33° C | 56% | 1003.9 hPa | 0 mm | - | - | - |
| 1777900276 | 13.33° C | 57% | 1003.8 hPa | 0 mm | - | - | - |
| 1777899976 | 12.78° C | 59% | 1003.7 hPa | 0 mm | - | - | - |
| 1777899676 | 12.78° C | 60% | 1003.7 hPa | 0 mm | - | - | - |
| 1777899376 | 12.22° C | 61% | 1003.7 hPa | 0 mm | - | - | - |
* Rain latest hour (hover to see other rain measurements)
** Current wind speed in m/s (hover to see current wind gust speed)